Flag for United Arab Emirates Weather past 2 weeks in Fujairah, Fujairah, United Arab Emirates

Now
82 °F

Clear.


Feels Like: 81 °F
Forecast: 77 / 88 °F
Wind: 8 mph from Northwest

Location: Fujairah


UV Index: 7 (High)

Visibility: 5 mi


Pressure: 29.77 "Hg

Humidity: 26%

Dew point: 45 °F

Location of FujairahLocation

Historic Weather in Fujairah

°F

Fujairah temperature yesterday

Maximum temperature yesterday: 102 °F (at 2:00 PM)
Minimum temperature yesterday: 84 °F (at 11:00 PM)
Average temperature yesterday: 93 °F

Past Weeks' High & Low Weather Summary

 TemperatureHumidityPressure
High102 °F (Apr 20, 2:00 PM)89% (Apr 16, 9:00 AM)30.22 "Hg (Apr 16, 9:00 AM)
Low64 °F (Apr 7, 9:00 AM)6% (Apr 8, 2:00 PM)29.53 "Hg (Apr 12, 5:00 PM)
Average86 °F40%29.84 "Hg
* Reported Apr 6 2:00 AM — Apr 21 2:00 AM, Fujairah, Weather by CustomWeather, © 2014

Note: Actual official high and low records may vary slightly from our data, if they occured in-between our weather recording intervals... More about our weather records

Advertising

Historic Weather Conditions — Data for Previous 24 hours

 ConditionsComfort  
Time TempWeatherWind HumidityBarometerVisibility
2:00 AM
Apr 21
81 °FClear.6 mph34%29.77 "Hg5 mi
12:00 AM84 °FClear.10 mph29%29.77 "Hg5 mi
11:00 PM
Apr 20
84 °FClear.8 mph29%29.74 "Hg5 mi
10:00 PM86 °FClear.9 mph24%29.74 "Hg5 mi
9:00 PM88 °FClear.15 mph25%29.74 "Hg4 mi
8:00 PM90 °FDuststorm.17 mph26%29.71 "Hg3 mi
7:00 PM91 °FDuststorm.21 mph24%29.71 "Hg3 mi
6:00 PM95 °FDuststorm.15 mph20%29.68 "Hg3 mi
5:00 PM99 °FDuststorm.15 mph13%29.68 "Hg3 mi
4:00 PM102 °FDuststorm.14 mph9%29.68 "Hg3 mi
3:00 PM102 °FDuststorm.18 mph8%29.68 "Hg3 mi
2:00 PM102 °FDuststorm.20 mph9%29.68 "Hg3 mi
1:00 PM100 °FDuststorm.15 mph12%29.71 "Hg3 mi
12:00 PM99 °FClear.15 mph16%29.74 "Hg4 mi
11:00 AM99 °FClear.23 mph16%29.74 "Hg5 mi
10:00 AM97 °FClear.29 mph14%29.74 "Hg5 mi
9:00 AM95 °FClear.26 mph16%29.74 "Hg5 mi
8:00 AM91 °FClear.28 mph18%29.71 "Hg5 mi
7:00 AM88 °FClear.22 mph24%29.71 "Hg4 mi
6:00 AM88 °FLow level haze.24 mph22%29.71 "Hg3 mi
5:00 AM90 °FClear.24 mph21%29.71 "Hg4 mi
4:00 AM90 °FClear.22 mph21%29.71 "Hg4 mi
3:00 AM91 °FClear.18 mph20%29.71 "Hg5 mi
2:00 AM91 °FClear.16 mph20%29.74 "Hg5 mi
Weather by CustomWeather, © 2014

See weather overview